Change the Weather History Date:

Sunday, January 18, 2004

  Actual Average Record
Temperature  
Mean Temperature 66 °F 61 °F  
Max Temperature 73 °F 71 °F 84 °F (1990)
Min Temperature 60 °F 52 °F 29 °F (1977)
Degree Days  
Heating Degree Days 0 5  
Month to date heating degree days 99  
Since 1 July heating degree days 254  
Cooling Degree Days 2 2  
Month to date cooling degree days 36  
Year to date cooling degree days 36  
Growing Degree Days 16 (Base 50)    
Moisture  
Dew Point 62 °F    
Average Humidity 93    
Maximum Humidity 100    
Minimum Humidity 73    
Precipitation  
Precipitation 0.94 in 0.06 in 1.16 in (1930)
Month to date precipitation 1.75  
Year to date precipitation 1.75  
Sea Level Pressure  
Sea Level Pressure 29.86 in    
Wind  
Wind Speed 12 mph (SSE)    
Max Wind Speed 21 mph    
Max Gust Speed 33 mph    
Visibility 8 miles    
Events Rain , Thunderstorm    
T = Trace of Precipitation, MM = Missing Value Source: NWS Daily Summary

Daily Weather History Graph

Daily Weather History Graph

Search for Another Location

Airport or City:

Trip Planner

Search our weather history database for the weather conditions in past years. The results will help you decide how hot, cold, wet, or windy it might be!

Date:

Astronomy

Jan. 18, 2004 Rise Set
Actual Time 7:21 AM EST 5:59 PM EST
Civil Twilight 6:56 AM EST 6:24 PM EST
Nautical Twilight 6:27 AM EST 6:53 PM EST
Astronomical Twilight 5:59 AM EST 7:21 PM EST
Moon 4:06 AM EST (1/18) 2:41 PM EST (1/18)
Length of Visible Light 11h 28m
Length of Day
10h 38m
Waning Crescent, 14% of the Moon is Illuminated
Jan 18
Waning Crescent
Jan 21
New
Jan 29
First Quarter
Feb 6
Full
Feb 13
Last Quarter

Hourly Weather History & Observations

Time (EST) Temp. Dew Point Humidity Pressure Visibility Wind Dir Wind Speed Gust Speed Precip Events Conditions
12:53 AM 64.0 °F 60.1 °F 87% 29.88 in 10.0 mi SSE 12.7 mph - N/A   Partly Cloudy
1:53 AM 64.9 °F 60.1 °F 84% 29.88 in 10.0 mi SSE 11.5 mph - N/A   Mostly Cloudy
2:53 AM 66.9 °F 61.0 °F 81% 29.87 in 10.0 mi South 16.1 mph - N/A   Scattered Clouds
3:53 AM 69.1 °F 63.0 °F 81% 29.84 in 10.0 mi South 17.3 mph - N/A   Overcast
4:53 AM 69.1 °F 64.9 °F 87% 29.84 in 10.0 mi South 19.6 mph 25.3 mph N/A   Clear
5:53 AM 70.0 °F 66.0 °F 87% 29.83 in 10.0 mi South 17.3 mph - 0.00 in   Mostly Cloudy
6:53 AM 69.1 °F 66.9 °F 93% 29.81 in 10.0 mi South 19.6 mph - 0.01 in Rain Light Rain
7:53 AM 68.0 °F 66.9 °F 96% 29.83 in 8.0 mi South 19.6 mph - 0.00 in   Overcast
8:21 AM 62.6 °F 60.8 °F 94% 29.90 in 7.0 mi WNW 20.7 mph 33.4 mph 0.01 in Rain Light Rain
8:26 AM 60.8 °F 60.8 °F 100% 29.89 in 2.0 mi NNW 18.4 mph 31.1 mph 0.18 in Rain Heavy Rain
8:29 AM 60.8 °F 60.8 °F 100% 29.89 in 1.2 mi NNW 16.1 mph 24.2 mph 0.28 in Rain Heavy Rain
8:37 AM 60.8 °F 60.8 °F 100% 29.92 in 1.5 mi NNW 15.0 mph 23.0 mph 0.43 in Rain Heavy Rain
8:53 AM 60.1 °F 60.1 °F 100% 29.91 in 2.5 mi North 9.2 mph - 0.65 in Rain , Thunderstorm Thunderstorms and Rain
8:58 AM 60.8 °F 60.8 °F 100% 29.90 in 4.0 mi NNE 8.1 mph - 0.02 in Rain , Thunderstorm Heavy Thunderstorms and Rain
9:20 AM 60.8 °F 60.8 °F 100% 29.91 in 5.0 mi NNE 10.4 mph - 0.09 in Rain , Thunderstorm Thunderstorms and Rain
9:30 AM 60.8 °F 60.8 °F 100% 29.92 in 5.0 mi NE 5.8 mph - 0.12 in Rain , Thunderstorm Thunderstorms and Rain
9:41 AM 60.8 °F 60.8 °F 100% 29.91 in 5.0 mi ENE 8.1 mph - 0.17 in Rain Heavy Rain
9:53 AM 60.1 °F 60.1 °F 100% 29.90 in 4.0 mi NE 8.1 mph - 0.22 in Rain Rain
10:36 AM 60.8 °F 60.8 °F 100% 29.89 in 10.0 mi ENE 8.1 mph - 0.05 in Rain Light Rain
10:53 AM 61.0 °F 61.0 °F 100% 29.89 in 10.0 mi East 8.1 mph - 0.05 in Rain Light Rain
11:53 AM 64.0 °F 62.1 °F 93% 29.86 in 10.0 mi East 12.7 mph - 0.01 in   Mostly Cloudy
12:53 PM 66.0 °F 62.1 °F 87% 29.84 in 10.0 mi East 9.2 mph - N/A   Overcast
1:53 PM 70.0 °F 63.0 °F 78% 29.81 in 10.0 mi SE 8.1 mph - N/A   Clear
2:53 PM 71.1 °F 64.0 °F 78% 29.80 in 10.0 mi SW 5.8 mph - N/A   Clear
3:53 PM 73.0 °F 64.0 °F 73% 29.79 in 10.0 mi SW 6.9 mph - N/A   Clear
4:53 PM 66.0 °F 63.0 °F 90% 29.80 in 10.0 mi WSW 5.8 mph - 0.00 in   Overcast
5:53 PM 64.9 °F 64.0 °F 97% 29.79 in 10.0 mi Calm Calm - N/A   Clear
6:53 PM 64.9 °F 64.0 °F 97% 29.80 in 10.0 mi SSW 6.9 mph - 0.00 in   Partly Cloudy
7:53 PM 64.0 °F 63.0 °F 96% 29.82 in 10.0 mi SSW 5.8 mph - N/A   Partly Cloudy
8:53 PM 64.0 °F 63.0 °F 96% 29.82 in 10.0 mi SSW 8.1 mph - N/A   Partly Cloudy
9:53 PM 63.0 °F 63.0 °F 100% 29.83 in 10.0 mi SSW 6.9 mph - N/A   Partly Cloudy
10:53 PM 63.0 °F 63.0 °F 100% 29.83 in 10.0 mi SSW 8.1 mph - N/A   Clear
11:53 PM 63.0 °F 63.0 °F 100% 29.84 in 10.0 mi SSW 5.8 mph - N/A   Clear